Regional Weather Roundup
Issued by NWS Jackson, KY

Home | Current Version | Previous Version | Text Only | Print | Product List | Glossary Off
Versions: 1 2 3 4 5 6 7 8 9 10 11 12 13 14 15 16 17 18 19 20 21 22 23 24 25 26 27

000
ASUS43 KJKL 222210
RWRJKL

EAST KENTUCKY HOURLY WEATHER ROUNDUP
NATIONAL WEATHER SERVICE JACKSON KY
600 PM EDT FRI JUL 22 2016

NOTE: "FAIR" INDICATES FEW OR NO CLOUDS BELOW 12,000 FEET WITH
NO SIGNIFICANT WEATHER AND/OR OBSTRUCTIONS TO VISIBILITY.

* THESE REPORTS ARE NOT UNDER NWS QUALITY CONTROL AND MAY NOT
  REPORT WEATHER SUCH AS PRECIPITATION AND FOG.

KYZ079-080-083-085-087-088-110-112-115-119-120-222300
...EASTERN KENTUCKY...

CITY           SKY/WX    TMP DP  RH WIND       PRES   REMARKS
JACKSON        CLOUDY    85  73  67 VRB3      30.06F HX  91
LONDON         CLOUDY    90  69  50 NE5       30.04F HX  94
SOMERSET*      CLOUDY    86  70  58 CALM      30.04S HX  90
MONTICELLO*    MOSUNNY  N/A N/A N/A W7        30.04F
WILLIAMSBURG*  CLOUDY    90  73  58 N5        30.03F HX  98
MIDDLESBORO*   CLOUDY    89  72  58 CALM      30.03F HX  95
HARLAN APT*      N/A     88  64  45 NW3       30.05F
PIKE CO APT*     N/A     81  75  82 N9        30.08F
BIG SANDY APT* LGT RAIN  75  72  89 W3        30.08S
MOREHEAD APT*  LGT RAIN  72  70  94 E5        30.10F
ASHLAND*       CLOUDY    73  70  88 W6        30.02F
$$

KYZ035-036-041-042-044-050-067-078-099-222300
...CENTRAL KENTUCKY...

CITY           SKY/WX    TMP DP  RH WIND       PRES   REMARKS
MT STERLING*   RAIN      72  72 100 E5        30.10R
FLEMING/MASON* CLOUDY    72  70  93 SE7       30.06F
DANVILLE*      CLOUDY    86  73  66 W7        30.04F HX  93
RICHMOND*      CLOUDY    88  72  58 NW6       30.03F HX  94
LEXINGTON      CLOUDY    89  73  59 N7        30.04F HX  97
FRANKFORT      CLOUDY    88  73  61 NE5       30.02F HX  95
LOUISVILLE     PTSUNNY   90  72  55 N5        29.99F HX  97
LEBANON*         N/A     88  75  66 CALM      30.02F HX  97
GLASGOW*       CLOUDY    73  73  97 E10G21    30.05F THUNDER
BOWLING GREEN  PTSUNNY   81  73  76 SE7       30.03R
$$

KYZ091>093-OHZ055-061-077-WVZ005-015-034-035-042-222300
...SOUTHERN OHIO/WEST VIRGINIA...

CITY           SKY/WX    TMP DP  RH WIND       PRES   REMARKS
COVINGTON      CLOUDY    86  74  67 S7        30.01F HX  94
COLUMBUS       PTSUNNY   84  70  62 S9        30.00F
DAYTON         PTSUNNY   84  74  71 SW8       30.02F HX  91
WILMINGTON     CLOUDY    82  70  66 SW9       30.02F
HUNTINGTON     PTSUNNY   75  71  87 W7        30.05F
CHARLESTON       N/A     79  68  69 SW6       30.04F
PINEVILLE*       N/A     82  70  68 MISG      30.13F
BECKLEY          N/A     79  65  62 NW6       30.13F
BLUEFIELD        N/A     78  63  59 N3        30.16F
LOGAN CO APT*  MOCLDY    81  68  65 CALM      30.08S
$$

VAZ002-007-008-TNZ017-027-036-066-071-222300
...SOUTHWEST VIRGINIA/EAST TENNESSEE...

CITY           SKY/WX    TMP DP  RH WIND       PRES   REMARKS
WISE*            N/A     86  52  30 NE8       30.15F
JONESVILLE*      N/A     91  68  46 CALM      30.06F HX  95
ABINGDON*        N/A     89  62  40 CALM      30.09F
BRISTOL        PTSUNNY   93  64  38 N6        30.04F HX  94
MORRISTOWN*    CLEAR     91  68  46 VRB5      30.02F HX  95
SEVIERVILLE*     N/A     91  68  46 NE7       30.00F HX  95
KNOXVILLE      PTSUNNY   92  63  38 CALM      29.99F HX  93
OAK RIDGE      PTSUNNY   94  69  44 E6        30.01F HX  99
CROSSVILLE     SUNNY     87  68  52 W3        30.08F HX  90
NASHVILLE      CLOUDY    88  74  63 SW6       30.00F HX  96
$$

...KEY TO REMARKS...
VSB - VISIBILITY IN MILES
WCI - WIND CHILL INDEX
HX  - HEAT INDEX

$$




USA.gov is the U.S. government's official web portal to all federal, state and local government web resources and services.